Location: Igon
(43.1667°N, 0.2333°W)
Time: 20:44:02
(UTC+00:00)

NOSS 3-2 (A) - Pass Details

Date: 29 November 2020
Orbit: 791 x 1417 km, 63.4° (Epoch: 20 December)

Event Time Altitude Azimuth Distance (km) Brightness Sun altitude
Exits shadow 04:28:36 46° 221° (SW) 1,727 4.4 -29.0°
Drops below altitude 10° 04:35:38 10° 172° (S) 3,473 6.5 -27.8°
Sets 04:38:44 0° 167° (SSE) 4,469 7.2 -27.2°
